owner,sensor,date,latitude,longitude,vertical_datum,mass_concentration_of_oxygen_in_sea_water,qcFlag 
DISL,ioos:station:DISL:BSCA:1,2011-07-01T00:00:00Z,30.3288,-87.8293,1.726,1.03,1111122 
DISL,ioos:station:DISL:BSCA:1,2011-07-01T00:30:00Z,30.3288,-87.8293,1.703,0.86,1111122 
DISL,ioos:station:DISL:BSCA:1,2011-07-01T01:00:00Z,30.3288,-87.8293,1.68,0.72,1111122 
DISL,ioos:station:DISL:BSCA:1,2011-07-01T01:30:00Z,30.3288,-87.8293,1.669,0.7,1111122 
DISL,ioos:station:DISL:BSCA:1,2011-07-01T02:00:00Z,30.3288,-87.8293,1.659,0.89,1111122 
DISL,ioos:station:DISL:BSCA:1,2011-07-01T02:30:00Z,30.3288,-87.8293,1.65,0.69,1111122 
DISL,ioos:station:DISL:BSCA:1,2011-07-01T03:00:00Z,30.3288,-87.8293,1.638,0.69,1111122 
DISL,ioos:station:DISL:BSCA:1,2011-07-01T03:30:00Z,30.3288,-87.8293,1.641,0.78,1111122 
DISL,ioos:station:DISL:BSCA:1,2011-07-01T04:00:00Z,30.3288,-87.8293,1.648,0.8,1111122 
DISL,ioos:station:DISL:BSCA:1,2011-07-01T04:30:00Z,30.3288,-87.8293,1.658,0.64,1111122 
DISL,ioos:station:DISL:BSCA:1,2011-07-01T05:00:00Z,30.3288,-87.8293,1.657,0.67,1111122 
DISL,ioos:station:DISL:BSCA:1,2011-07-01T05:30:00Z,30.3288,-87.8293,1.677,0.77,1111122 
DISL,ioos:station:DISL:BSCA:1,2011-07-01T06:00:00Z,30.3288,-87.8293,1.694,0.75,1111122 
DISL,ioos:station:DISL:BSCA:1,2011-07-01T06:30:00Z,30.3288,-87.8293,1.712,0.48,1111122 
DISL,ioos:station:DISL:BSCA:1,2011-07-01T07:00:00Z,30.3288,-87.8293,1.756,0.6,1111122 
DISL,ioos:station:DISL:BSCA:1,2011-07-01T07:30:00Z,30.3288,-87.8293,1.789,0.43,1111122 
DISL,ioos:station:DISL:BSCA:1,2011-07-01T08:00:00Z,30.3288,-87.8293,1.829,0.33,1111122 
DISL,ioos:station:DISL:BSCA:1,2011-07-01T08:30:00Z,30.3288,-87.8293,1.845,0.41,1111122 
DISL,ioos:station:DISL:BSCA:1,2011-07-01T09:00:00Z,30.3288,-87.8293,1.846,0.66,1111122 
DISL,ioos:station:DISL:BSCA:1,2011-07-01T09:30:00Z,30.3288,-87.8293,1.866,0.53,1111122 
DISL,ioos:station:DISL:BSCA:1,2011-07-01T10:00:00Z,30.3288,-87.8293,1.91,0.38,1111122 
DISL,ioos:station:DISL:BSCA:1,2011-07-01T10:30:00Z,30.3288,-87.8293,1.963,0.79,1111122 
DISL,ioos:station:DISL:BSCA:1,2011-07-01T11:00:00Z,30.3288,-87.8293,1.998,0.58,1111122 
DISL,ioos:station:DISL:BSCA:1,2011-07-01T11:30:00Z,30.3288,-87.8293,2.025,0.65,1111122 
DISL,ioos:station:DISL:BSCA:1,2011-07-01T12:00:00Z,30.3288,-87.8293,2.048,0.58,1111122 
DISL,ioos:station:DISL:BSCA:1,2011-07-01T12:30:00Z,30.3288,-87.8293,2.069,0.59,1111122 
DISL,ioos:station:DISL:BSCA:1,2011-07-01T13:00:00Z,30.3288,-87.8293,2.11,0.56,1111122 
DISL,ioos:station:DISL:BSCA:1,2011-07-01T13:30:00Z,30.3288,-87.8293,2.135,0.52,1111122 
DISL,ioos:station:DISL:BSCA:1,2011-07-01T14:00:00Z,30.3288,-87.8293,2.141,0.66,1111122 
DISL,ioos:station:DISL:BSCA:1,2011-07-01T14:30:00Z,30.3288,-87.8293,2.163,0.6,1111122 
DISL,ioos:station:DISL:BSCA:1,2011-07-01T15:00:00Z,30.3288,-87.8293,2.179,0.42,1111122 
DISL,ioos:station:DISL:BSCA:1,2011-07-01T15:30:00Z,30.3288,-87.8293,2.206,0.45,1111122 
DISL,ioos:station:DISL:BSCA:1,2011-07-01T16:00:00Z,30.3288,-87.8293,2.213,0.51,1111122 
DISL,ioos:station:DISL:BSCA:1,2011-07-01T16:30:00Z,30.3288,-87.8293,2.22,0.53,1111122 
DISL,ioos:station:DISL:BSCA:1,2011-07-01T17:00:00Z,30.3288,-87.8293,2.217,0.67,1111122 
DISL,ioos:station:DISL:BSCA:1,2011-07-01T17:30:00Z,30.3288,-87.8293,2.205,0.62,1111122 
DISL,ioos:station:DISL:BSCA:1,2011-07-01T18:00:00Z,30.3288,-87.8293,2.194,0.46,1111122 
DISL,ioos:station:DISL:BSCA:1,2011-07-01T18:30:00Z,30.3288,-87.8293,2.168,0.54,1111122 
DISL,ioos:station:DISL:BSCA:1,2011-07-01T19:00:00Z,30.3288,-87.8293,2.129,0.61,1111122 
DISL,ioos:station:DISL:BSCA:1,2011-07-01T19:30:00Z,30.3288,-87.8293,2.091,0.53,1111122 
DISL,ioos:station:DISL:BSCA:1,2011-07-01T20:00:00Z,30.3288,-87.8293,2.041,0.77,1111122 
DISL,ioos:station:DISL:BSCA:1,2011-07-01T20:30:00Z,30.3288,-87.8293,1.995,0.65,1111122 
DISL,ioos:station:DISL:BSCA:1,2011-07-01T21:00:00Z,30.3288,-87.8293,1.957,0.75,1111122 
DISL,ioos:station:DISL:BSCA:1,2011-07-01T21:30:00Z,30.3288,-87.8293,1.929,0.9,1111122 
DISL,ioos:station:DISL:BSCA:1,2011-07-01T22:00:00Z,30.3288,-87.8293,1.891,0.88,1111122 
DISL,ioos:station:DISL:BSCA:1,2011-07-01T22:30:00Z,30.3288,-87.8293,1.863,1.02,1111122 
DISL,ioos:station:DISL:BSCA:1,2011-07-01T23:00:00Z,30.3288,-87.8293,1.831,0.68,1111122 
DISL,ioos:station:DISL:BSCA:1,2011-07-01T23:30:00Z,30.3288,-87.8293,1.799,0.94,1111122 
DISL,ioos:station:DISL:BSCA:1,2011-07-02T00:00:00Z,30.3288,-87.8293,1.774,0.8,1111122 
DISL,ioos:station:DISL:BSCA:1,2011-07-02T00:30:00Z,30.3288,-87.8293,1.762,0.62,1111122 
DISL,ioos:station:DISL:BSCA:1,2011-07-02T01:00:00Z,30.3288,-87.8293,1.734,0.6,1111122 
DISL,ioos:station:DISL:BSCA:1,2011-07-02T01:30:00Z,30.3288,-87.8293,1.723,0.71,1111122 
DISL,ioos:station:DISL:BSCA:1,2011-07-02T02:00:00Z,30.3288,-87.8293,1.695,0.61,1111122 
DISL,ioos:station:DISL:BSCA:1,2011-07-02T02:30:00Z,30.3288,-87.8293,1.682,0.7,1111122 
DISL,ioos:station:DISL:BSCA:1,2011-07-02T03:00:00Z,30.3288,-87.8293,1.67,0.6,1111122 
DISL,ioos:station:DISL:BSCA:1,2011-07-02T03:30:00Z,30.3288,-87.8293,1.665,0.45,1111122 
DISL,ioos:station:DISL:BSCA:1,2011-07-02T04:00:00Z,30.3288,-87.8293,1.669,0.65,1111122 
DISL,ioos:station:DISL:BSCA:1,2011-07-02T04:30:00Z,30.3288,-87.8293,1.656,0.63,1111122 
DISL,ioos:station:DISL:BSCA:1,2011-07-02T05:00:00Z,30.3288,-87.8293,1.682,0.53,1111122 
DISL,ioos:station:DISL:BSCA:1,2011-07-02T05:30:00Z,30.3288,-87.8293,1.684,0.69,1111122 
DISL,ioos:station:DISL:BSCA:1,2011-07-02T06:00:00Z,30.3288,-87.8293,1.711,0.64,1111122 
DISL,ioos:station:DISL:BSCA:1,2011-07-02T06:30:00Z,30.3288,-87.8293,1.721,0.42,1111122 
DISL,ioos:station:DISL:BSCA:1,2011-07-02T07:00:00Z,30.3288,-87.8293,1.749,0.54,1111122 
DISL,ioos:station:DISL:BSCA:1,2011-07-02T07:30:00Z,30.3288,-87.8293,1.778,0.61,1111122 
DISL,ioos:station:DISL:BSCA:1,2011-07-02T08:00:00Z,30.3288,-87.8293,1.799,0.58,1111122 
DISL,ioos:station:DISL:BSCA:1,2011-07-02T08:30:00Z,30.3288,-87.8293,1.823,0.54,1111122 
DISL,ioos:station:DISL:BSCA:1,2011-07-02T09:00:00Z,30.3288,-87.8293,1.849,0.58,1111122 
DISL,ioos:station:DISL:BSCA:1,2011-07-02T09:30:00Z,30.3288,-87.8293,1.88,0.5,1111122 
DISL,ioos:station:DISL:BSCA:1,2011-07-02T10:00:00Z,30.3288,-87.8293,1.908,0.52,1111122 
DISL,ioos:station:DISL:BSCA:1,2011-07-02T10:30:00Z,30.3288,-87.8293,1.94,0.5,1111122 
DISL,ioos:station:DISL:BSCA:1,2011-07-02T11:00:00Z,30.3288,-87.8293,1.962,0.53,1111122 
DISL,ioos:station:DISL:BSCA:1,2011-07-02T11:30:00Z,30.3288,-87.8293,2.002,0.55,1111122 
DISL,ioos:station:DISL:BSCA:1,2011-07-02T12:00:00Z,30.3288,-87.8293,2.016,0.57,1111122 
DISL,ioos:station:DISL:BSCA:1,2011-07-02T12:30:00Z,30.3288,-87.8293,2.05,0.6,1111122 
DISL,ioos:station:DISL:BSCA:1,2011-07-02T13:00:00Z,30.3288,-87.8293,2.065,0.59,1111122 
DISL,ioos:station:DISL:BSCA:1,2011-07-02T13:30:00Z,30.3288,-87.8293,2.084,0.56,1111122 
DISL,ioos:station:DISL:BSCA:1,2011-07-02T14:00:00Z,30.3288,-87.8293,2.092,0.57,1111122 
DISL,ioos:station:DISL:BSCA:1,2011-07-02T14:30:00Z,30.3288,-87.8293,2.1,0.61,1111122 
DISL,ioos:station:DISL:BSCA:1,2011-07-02T15:00:00Z,30.3288,-87.8293,2.13,0.48,1111122 
DISL,ioos:station:DISL:BSCA:1,2011-07-02T15:30:00Z,30.3288,-87.8293,2.154,0.43,1111122 
DISL,ioos:station:DISL:BSCA:1,2011-07-02T16:00:00Z,30.3288,-87.8293,2.176,0.32,1111122 
DISL,ioos:station:DISL:BSCA:1,2011-07-02T16:30:00Z,30.3288,-87.8293,2.19,0.27,1111122 
DISL,ioos:station:DISL:BSCA:1,2011-07-02T17:00:00Z,30.3288,-87.8293,2.197,0.34,1111122 
DISL,ioos:station:DISL:BSCA:1,2011-07-02T17:30:00Z,30.3288,-87.8293,2.189,0.38,1111122 
DISL,ioos:station:DISL:BSCA:1,2011-07-02T18:00:00Z,30.3288,-87.8293,2.177,0.45,1111122 
DISL,ioos:station:DISL:BSCA:1,2011-07-02T18:30:00Z,30.3288,-87.8293,2.177,0.4,1111122 
DISL,ioos:station:DISL:BSCA:1,2011-07-02T19:00:00Z,30.3288,-87.8293,2.151,0.56,1111122 
DISL,ioos:station:DISL:BSCA:1,2011-07-02T19:30:00Z,30.3288,-87.8293,2.134,0.54,1111122 
DISL,ioos:station:DISL:BSCA:1,2011-07-02T20:00:00Z,30.3288,-87.8293,2.099,0.58,1111122 
DISL,ioos:station:DISL:BSCA:1,2011-07-02T20:30:00Z,30.3288,-87.8293,2.041,0.58,1111122 
DISL,ioos:station:DISL:BSCA:1,2011-07-02T21:00:00Z,30.3288,-87.8293,2.002,0.4,1111122 
DISL,ioos:station:DISL:BSCA:1,2011-07-02T21:30:00Z,30.3288,-87.8293,1.999,0.33,1111122 
DISL,ioos:station:DISL:BSCA:1,2011-07-02T22:00:00Z,30.3288,-87.8293,1.958,0.37,1111122 
DISL,ioos:station:DISL:BSCA:1,2011-07-02T22:30:00Z,30.3288,-87.8293,1.909,0.32,1111122 
DISL,ioos:station:DISL:BSCA:1,2011-07-02T23:00:00Z,30.3288,-87.8293,1.866,0.65,1111122 
DISL,ioos:station:DISL:BSCA:1,2011-07-02T23:30:00Z,30.3288,-87.8293,1.82,0.46,1111122 
DISL,ioos:station:DISL:BSCA:1,2011-07-03T00:00:00Z,30.3288,-87.8293,1.774,0.43,1111122 
DISL,ioos:station:DISL:BSCA:1,2011-07-03T00:30:00Z,30.3288,-87.8293,1.744,0.45,1111122 
DISL,ioos:station:DISL:BSCA:1,2011-07-03T01:00:00Z,30.3288,-87.8293,1.711,0.42,1111122 
DISL,ioos:station:DISL:BSCA:1,2011-07-03T01:30:00Z,30.3288,-87.8293,1.7,0.43,1111122 
DISL,ioos:station:DISL:BSCA:1,2011-07-03T02:00:00Z,30.3288,-87.8293,1.689,0.39,1111122 
DISL,ioos:station:DISL:BSCA:1,2011-07-03T02:30:00Z,30.3288,-87.8293,1.667,0.41,1111122 
DISL,ioos:station:DISL:BSCA:1,2011-07-03T03:00:00Z,30.3288,-87.8293,1.646,0.37,1111122 
DISL,ioos:station:DISL:BSCA:1,2011-07-03T03:30:00Z,30.3288,-87.8293,1.636,0.37,1111122 
DISL,ioos:station:DISL:BSCA:1,2011-07-03T04:00:00Z,30.3288,-87.8293,1.635,0.41,1111122 
DISL,ioos:station:DISL:BSCA:1,2011-07-03T04:30:00Z,30.3288,-87.8293,1.627,0.39,1111122 
DISL,ioos:station:DISL:BSCA:1,2011-07-03T05:00:00Z,30.3288,-87.8293,1.636,0.47,1111122 
DISL,ioos:station:DISL:BSCA:1,2011-07-03T05:30:00Z,30.3288,-87.8293,1.649,0.43,1111122 
DISL,ioos:station:DISL:BSCA:1,2011-07-03T06:00:00Z,30.3288,-87.8293,1.655,0.38,1111122 
DISL,ioos:station:DISL:BSCA:1,2011-07-03T06:30:00Z,30.3288,-87.8293,1.684,0.44,1111122 
DISL,ioos:station:DISL:BSCA:1,2011-07-03T07:00:00Z,30.3288,-87.8293,1.714,0.46,1111122 
DISL,ioos:station:DISL:BSCA:1,2011-07-03T07:30:00Z,30.3288,-87.8293,1.744,0.44,1111122 
DISL,ioos:station:DISL:BSCA:1,2011-07-03T08:00:00Z,30.3288,-87.8293,1.765,0.34,1111122 
DISL,ioos:station:DISL:BSCA:1,2011-07-03T08:30:00Z,30.3288,-87.8293,1.789,0.36,1111122 
DISL,ioos:station:DISL:BSCA:1,2011-07-03T09:00:00Z,30.3288,-87.8293,1.813,0.34,1111122 
DISL,ioos:station:DISL:BSCA:1,2011-07-03T09:30:00Z,30.3288,-87.8293,1.839,0.33,1111122 
DISL,ioos:station:DISL:BSCA:1,2011-07-03T10:00:00Z,30.3288,-87.8293,1.865,0.32,1111122 
DISL,ioos:station:DISL:BSCA:1,2011-07-03T10:30:00Z,30.3288,-87.8293,1.9,0.38,1111122 
DISL,ioos:station:DISL:BSCA:1,2011-07-03T11:00:00Z,30.3288,-87.8293,1.927,0.36,1111122 
DISL,ioos:station:DISL:BSCA:1,2011-07-03T11:30:00Z,30.3288,-87.8293,1.96,0.42,1111122 
DISL,ioos:station:DISL:BSCA:1,2011-07-03T12:00:00Z,30.3288,-87.8293,1.966,0.41,1111122 
DISL,ioos:station:DISL:BSCA:1,2011-07-03T12:30:00Z,30.3288,-87.8293,1.992,0.32,1111122 
DISL,ioos:station:DISL:BSCA:1,2011-07-03T13:00:00Z,30.3288,-87.8293,2.011,0.32,1111122 
DISL,ioos:station:DISL:BSCA:1,2011-07-03T13:30:00Z,30.3288,-87.8293,2.047,0.38,1111122 
DISL,ioos:station:DISL:BSCA:1,2011-07-03T14:00:00Z,30.3288,-87.8293,2.082,0.37,1111122 
DISL,ioos:station:DISL:BSCA:1,2011-07-03T14:30:00Z,30.3288,-87.8293,2.127,0.47,1111122 
DISL,ioos:station:DISL:BSCA:1,2011-07-03T15:00:00Z,30.3288,-87.8293,2.163,0.38,1111122 
DISL,ioos:station:DISL:BSCA:1,2011-07-03T15:30:00Z,30.3288,-87.8293,2.168,0.4,1111122 
DISL,ioos:station:DISL:BSCA:1,2011-07-03T16:00:00Z,30.3288,-87.8293,2.203,0.36,1111122 
DISL,ioos:station:DISL:BSCA:1,2011-07-03T16:30:00Z,30.3288,-87.8293,2.219,0.43,1111122 
DISL,ioos:station:DISL:BSCA:1,2011-07-03T17:00:00Z,30.3288,-87.8293,2.225,0.6,1111122 
DISL,ioos:station:DISL:BSCA:1,2011-07-03T17:30:00Z,30.3288,-87.8293,2.229,0.36,1111122 
DISL,ioos:station:DISL:BSCA:1,2011-07-03T18:00:00Z,30.3288,-87.8293,2.225,0.5,1111122 
DISL,ioos:station:DISL:BSCA:1,2011-07-03T18:30:00Z,30.3288,-87.8293,2.219,0.51,1111122 
DISL,ioos:station:DISL:BSCA:1,2011-07-03T19:00:00Z,30.3288,-87.8293,2.211,0.49,1111122 
DISL,ioos:station:DISL:BSCA:1,2011-07-03T19:30:00Z,30.3288,-87.8293,2.201,0.42,1111122 
DISL,ioos:station:DISL:BSCA:1,2011-07-03T20:00:00Z,30.3288,-87.8293,2.178,0.47,1111122 
DISL,ioos:station:DISL:BSCA:1,2011-07-03T20:30:00Z,30.3288,-87.8293,2.144,0.44,1111122 
DISL,ioos:station:DISL:BSCA:1,2011-07-03T21:00:00Z,30.3288,-87.8293,2.1,0.72,1111122 
DISL,ioos:station:DISL:BSCA:1,2011-07-03T21:30:00Z,30.3288,-87.8293,2.054,0.75,1111122 
DISL,ioos:station:DISL:BSCA:1,2011-07-03T22:00:00Z,30.3288,-87.8293,2.008,0.82,1111122 
DISL,ioos:station:DISL:BSCA:1,2011-07-03T22:30:00Z,30.3288,-87.8293,1.965,0.6,1111122 
DISL,ioos:station:DISL:BSCA:1,2011-07-03T23:00:00Z,30.3288,-87.8293,1.938,1.07,1111122 
DISL,ioos:station:DISL:BSCA:1,2011-07-03T23:30:00Z,30.3288,-87.8293,1.906,1.0,1111122 
DISL,ioos:station:DISL:BSCA:1,2011-07-04T00:00:00Z,30.3288,-87.8293,1.88,0.86,1111122 
DISL,ioos:station:DISL:BSCA:1,2011-07-04T00:30:00Z,30.3288,-87.8293,1.848,0.99,1111122 
DISL,ioos:station:DISL:BSCA:1,2011-07-04T01:00:00Z,30.3288,-87.8293,1.822,0.85,1111122 
DISL,ioos:station:DISL:BSCA:1,2011-07-04T01:30:00Z,30.3288,-87.8293,1.797,0.59,1111122 
DISL,ioos:station:DISL:BSCA:1,2011-07-04T02:00:00Z,30.3288,-87.8293,1.77,0.41,1111122 
DISL,ioos:station:DISL:BSCA:1,2011-07-04T02:30:00Z,30.3288,-87.8293,1.774,0.36,1111122 
DISL,ioos:station:DISL:BSCA:1,2011-07-04T03:00:00Z,30.3288,-87.8293,1.759,0.34,1111122 
DISL,ioos:station:DISL:BSCA:1,2011-07-04T03:30:00Z,30.3288,-87.8293,1.751,0.35,1111122 
DISL,ioos:station:DISL:BSCA:1,2011-07-04T04:00:00Z,30.3288,-87.8293,1.736,0.4,1111122 
DISL,ioos:station:DISL:BSCA:1,2011-07-04T04:30:00Z,30.3288,-87.8293,1.722,0.66,1111122 
DISL,ioos:station:DISL:BSCA:1,2011-07-04T05:00:00Z,30.3288,-87.8293,1.716,0.55,1111122 
DISL,ioos:station:DISL:BSCA:1,2011-07-04T05:30:00Z,30.3288,-87.8293,1.704,0.51,1111122 
DISL,ioos:station:DISL:BSCA:1,2011-07-04T06:00:00Z,30.3288,-87.8293,1.711,0.48,1111122 
DISL,ioos:station:DISL:BSCA:1,2011-07-04T06:30:00Z,30.3288,-87.8293,1.723,0.41,1111122 
DISL,ioos:station:DISL:BSCA:1,2011-07-04T07:00:00Z,30.3288,-87.8293,1.746,0.49,1111122 
DISL,ioos:station:DISL:BSCA:1,2011-07-04T07:30:00Z,30.3288,-87.8293,1.775,0.5,1111122 
DISL,ioos:station:DISL:BSCA:1,2011-07-04T08:00:00Z,30.3288,-87.8293,1.802,0.44,1111122 
DISL,ioos:station:DISL:BSCA:1,2011-07-04T08:30:00Z,30.3288,-87.8293,1.827,0.47,1111122 
DISL,ioos:station:DISL:BSCA:1,2011-07-04T09:00:00Z,30.3288,-87.8293,1.85,0.38,1111122 
DISL,ioos:station:DISL:BSCA:1,2011-07-04T09:30:00Z,30.3288,-87.8293,1.867,0.48,1111122 
DISL,ioos:station:DISL:BSCA:1,2011-07-04T10:00:00Z,30.3288,-87.8293,1.892,0.36,1111122 
DISL,ioos:station:DISL:BSCA:1,2011-07-04T10:30:00Z,30.3288,-87.8293,1.906,0.37,1111122 
DISL,ioos:station:DISL:BSCA:1,2011-07-04T11:00:00Z,30.3288,-87.8293,1.938,0.44,1111122 
DISL,ioos:station:DISL:BSCA:1,2011-07-04T11:30:00Z,30.3288,-87.8293,1.957,0.46,1111122 
DISL,ioos:station:DISL:BSCA:1,2011-07-04T12:00:00Z,30.3288,-87.8293,1.989,0.4,1111122 
DISL,ioos:station:DISL:BSCA:1,2011-07-04T12:30:00Z,30.3288,-87.8293,2.017,0.39,1111122 
DISL,ioos:station:DISL:BSCA:1,2011-07-04T13:00:00Z,30.3288,-87.8293,2.044,0.55,1111122 
DISL,ioos:station:DISL:BSCA:1,2011-07-04T13:30:00Z,30.3288,-87.8293,2.071,0.63,1111122 
DISL,ioos:station:DISL:BSCA:1,2011-07-04T14:00:00Z,30.3288,-87.8293,2.103,0.52,1111122 
DISL,ioos:station:DISL:BSCA:1,2011-07-04T14:30:00Z,30.3288,-87.8293,2.121,0.56,1111122 
DISL,ioos:station:DISL:BSCA:1,2011-07-04T15:00:00Z,30.3288,-87.8293,2.143,0.51,1111122 
DISL,ioos:station:DISL:BSCA:1,2011-07-04T15:30:00Z,30.3288,-87.8293,2.158,0.33,1111122 
DISL,ioos:station:DISL:BSCA:1,2011-07-04T16:00:00Z,30.3288,-87.8293,2.172,0.5,1111122 
DISL,ioos:station:DISL:BSCA:1,2011-07-04T16:30:00Z,30.3288,-87.8293,2.185,0.54,1111122 
DISL,ioos:station:DISL:BSCA:1,2011-07-04T17:00:00Z,30.3288,-87.8293,2.193,0.72,1111122 
DISL,ioos:station:DISL:BSCA:1,2011-07-04T17:30:00Z,30.3288,-87.8293,2.195,0.37,1111122 
DISL,ioos:station:DISL:BSCA:1,2011-07-04T18:00:00Z,30.3288,-87.8293,2.187,0.52,1111122 
DISL,ioos:station:DISL:BSCA:1,2011-07-04T18:30:00Z,30.3288,-87.8293,2.184,0.52,1111122 
DISL,ioos:station:DISL:BSCA:1,2011-07-04T19:00:00Z,30.3288,-87.8293,2.173,0.87,1111122 
DISL,ioos:station:DISL:BSCA:1,2011-07-04T19:30:00Z,30.3288,-87.8293,2.147,0.97,1111122 
DISL,ioos:station:DISL:BSCA:1,2011-07-04T20:00:00Z,30.3288,-87.8293,2.12,1.16,1111122 
DISL,ioos:station:DISL:BSCA:1,2011-07-04T20:30:00Z,30.3288,-87.8293,2.096,0.99,1111122 
DISL,ioos:station:DISL:BSCA:1,2011-07-04T21:00:00Z,30.3288,-87.8293,2.067,0.97,1111122 
DISL,ioos:station:DISL:BSCA:1,2011-07-04T21:30:00Z,30.3288,-87.8293,2.042,1.41,1111122 
DISL,ioos:station:DISL:BSCA:1,2011-07-04T22:00:00Z,30.3288,-87.8293,2.015,1.2,1111122 
DISL,ioos:station:DISL:BSCA:1,2011-07-04T22:30:00Z,30.3288,-87.8293,1.988,0.96,1111122 
DISL,ioos:station:DISL:BSCA:1,2011-07-04T23:00:00Z,30.3288,-87.8293,1.951,1.24,1111122 
DISL,ioos:station:DISL:BSCA:1,2011-07-04T23:30:00Z,30.3288,-87.8293,1.93,1.43,1111122 
DISL,ioos:station:DISL:BSCA:1,2011-07-05T00:00:00Z,30.3288,-87.8293,1.902,2.1,1111122 
DISL,ioos:station:DISL:BSCA:1,2011-07-05T00:30:00Z,30.3288,-87.8293,1.885,1.16,1111122 
DISL,ioos:station:DISL:BSCA:1,2011-07-05T01:00:00Z,30.3288,-87.8293,1.864,0.97,1111122 
DISL,ioos:station:DISL:BSCA:1,2011-07-05T01:30:00Z,30.3288,-87.8293,1.842,0.9,1111122 
DISL,ioos:station:DISL:BSCA:1,2011-07-05T02:00:00Z,30.3288,-87.8293,1.823,0.66,1111122 
DISL,ioos:station:DISL:BSCA:1,2011-07-05T02:30:00Z,30.3288,-87.8293,1.809,0.59,1111122 
DISL,ioos:station:DISL:BSCA:1,2011-07-05T03:00:00Z,30.3288,-87.8293,1.798,0.55,1111122 
DISL,ioos:station:DISL:BSCA:1,2011-07-05T03:30:00Z,30.3288,-87.8293,1.777,0.62,1111122 
DISL,ioos:station:DISL:BSCA:1,2011-07-05T04:00:00Z,30.3288,-87.8293,1.775,0.55,1111122 
DISL,ioos:station:DISL:BSCA:1,2011-07-05T04:30:00Z,30.3288,-87.8293,1.763,0.56,1111122 
DISL,ioos:station:DISL:BSCA:1,2011-07-05T05:00:00Z,30.3288,-87.8293,1.734,0.43,1111122 
DISL,ioos:station:DISL:BSCA:1,2011-07-05T05:30:00Z,30.3288,-87.8293,1.754,0.39,1111122 
DISL,ioos:station:DISL:BSCA:1,2011-07-05T06:00:00Z,30.3288,-87.8293,1.76,0.41,1111122 
DISL,ioos:station:DISL:BSCA:1,2011-07-05T06:30:00Z,30.3288,-87.8293,1.785,0.6,1111122 
DISL,ioos:station:DISL:BSCA:1,2011-07-05T07:00:00Z,30.3288,-87.8293,1.82,0.39,1111122 
DISL,ioos:station:DISL:BSCA:1,2011-07-05T07:30:00Z,30.3288,-87.8293,1.843,0.57,1111122 
DISL,ioos:station:DISL:BSCA:1,2011-07-05T08:00:00Z,30.3288,-87.8293,1.865,0.64,1111122 
DISL,ioos:station:DISL:BSCA:1,2011-07-05T08:30:00Z,30.3288,-87.8293,1.892,0.52,1111122 
DISL,ioos:station:DISL:BSCA:1,2011-07-05T09:00:00Z,30.3288,-87.8293,1.901,0.56,1111122 
DISL,ioos:station:DISL:BSCA:1,2011-07-05T09:30:00Z,30.3288,-87.8293,1.93,0.67,1111122 
DISL,ioos:station:DISL:BSCA:1,2011-07-05T10:00:00Z,30.3288,-87.8293,1.948,0.36,1111122 
DISL,ioos:station:DISL:BSCA:1,2011-07-05T10:30:00Z,30.3288,-87.8293,1.964,0.43,1111122 
DISL,ioos:station:DISL:BSCA:1,2011-07-05T11:00:00Z,30.3288,-87.8293,1.973,0.36,1111122 
DISL,ioos:station:DISL:BSCA:1,2011-07-05T11:30:00Z,30.3288,-87.8293,1.987,0.35,1111122 
DISL,ioos:station:DISL:BSCA:1,2011-07-05T12:00:00Z,30.3288,-87.8293,1.997,0.55,1111122 
DISL,ioos:station:DISL:BSCA:1,2011-07-05T12:30:00Z,30.3288,-87.8293,1.995,0.83,1111122 
DISL,ioos:station:DISL:BSCA:1,2011-07-05T13:00:00Z,30.3288,-87.8293,2.012,0.9,1111122 
DISL,ioos:station:DISL:BSCA:1,2011-07-05T13:30:00Z,30.3288,-87.8293,2.015,0.58,1111122 
DISL,ioos:station:DISL:BSCA:1,2011-07-05T14:00:00Z,30.3288,-87.8293,2.042,0.3,1111122 
DISL,ioos:station:DISL:BSCA:1,2011-07-05T14:30:00Z,30.3288,-87.8293,4.773,13.4,1111122 
DISL,ioos:station:DISL:BSCA:1,2011-07-05T15:00:00Z,30.3288,-87.8293,1.599,4.4,1111122 
DISL,ioos:station:DISL:BSCA:1,2011-07-05T15:30:00Z,30.3288,-87.8293,1.614,5.5,1111122 
DISL,ioos:station:DISL:BSCA:1,2011-07-05T16:00:00Z,30.3288,-87.8293,1.63,4.47,1111122 
DISL,ioos:station:DISL:BSCA:1,2011-07-05T16:30:00Z,30.3288,-87.8293,1.643,3.57,1111122 
DISL,ioos:station:DISL:BSCA:1,2011-07-05T17:00:00Z,30.3288,-87.8293,1.651,2.31,1111122 
DISL,ioos:station:DISL:BSCA:1,2011-07-05T17:30:00Z,30.3288,-87.8293,1.665,2.67,1111122 
DISL,ioos:station:DISL:BSCA:1,2011-07-05T18:00:00Z,30.3288,-87.8293,1.657,3.34,1111122 
DISL,ioos:station:DISL:BSCA:1,2011-07-05T18:30:00Z,30.3288,-87.8293,1.664,2.85,1111122 
DISL,ioos:station:DISL:BSCA:1,2011-07-05T19:00:00Z,30.3288,-87.8293,1.655,3.5,1111122 
DISL,ioos:station:DISL:BSCA:1,2011-07-05T19:30:00Z,30.3288,-87.8293,1.654,4.31,1111122 
DISL,ioos:station:DISL:BSCA:1,2011-07-05T20:00:00Z,30.3288,-87.8293,1.643,5.0,1111122 
DISL,ioos:station:DISL:BSCA:1,2011-07-05T20:30:00Z,30.3288,-87.8293,1.634,5.54,1111122 
DISL,ioos:station:DISL:BSCA:1,2011-07-05T21:00:00Z,30.3288,-87.8293,1.628,5.4,1111122 
DISL,ioos:station:DISL:BSCA:1,2011-07-05T21:30:00Z,30.3288,-87.8293,1.614,5.74,1111122 
DISL,ioos:station:DISL:BSCA:1,2011-07-05T22:00:00Z,30.3288,-87.8293,1.578,5.63,1111122 
DISL,ioos:station:DISL:BSCA:1,2011-07-05T22:30:00Z,30.3288,-87.8293,1.599,5.3,1111122 
DISL,ioos:station:DISL:BSCA:1,2011-07-05T23:00:00Z,30.3288,-87.8293,1.576,5.37,1111122 
DISL,ioos:station:DISL:BSCA:1,2011-07-05T23:30:00Z,30.3288,-87.8293,1.556,5.58,1111122 
DISL,ioos:station:DISL:BSCA:1,2011-07-06T00:00:00Z,30.3288,-87.8293,1.557,5.78,1111122 
DISL,ioos:station:DISL:BSCA:1,2011-07-06T00:30:00Z,30.3288,-87.8293,1.507,5.51,1111122 
DISL,ioos:station:DISL:BSCA:1,2011-07-06T01:00:00Z,30.3288,-87.8293,1.603,5.86,1111122 
DISL,ioos:station:DISL:BSCA:1,2011-07-06T01:30:00Z,30.3288,-87.8293,1.503,5.2,1111122 
DISL,ioos:station:DISL:BSCA:1,2011-07-06T02:00:00Z,30.3288,-87.8293,1.395,6.11,1111122 
DISL,ioos:station:DISL:BSCA:1,2011-07-06T02:30:00Z,30.3288,-87.8293,1.34,6.05,1111122 
DISL,ioos:station:DISL:BSCA:1,2011-07-06T03:00:00Z,30.3288,-87.8293,1.258,5.26,1111122 
DISL,ioos:station:DISL:BSCA:1,2011-07-06T03:30:00Z,30.3288,-87.8293,1.249,3.79,1111122 
DISL,ioos:station:DISL:BSCA:1,2011-07-06T04:00:00Z,30.3288,-87.8293,1.281,3.58,1111122 
DISL,ioos:station:DISL:BSCA:1,2011-07-06T04:30:00Z,30.3288,-87.8293,1.293,3.26,1111122 
DISL,ioos:station:DISL:BSCA:1,2011-07-06T05:00:00Z,30.3288,-87.8293,1.356,4.41,1111122 
DISL,ioos:station:DISL:BSCA:1,2011-07-06T05:30:00Z,30.3288,-87.8293,1.394,4.42,1111122 
DISL,ioos:station:DISL:BSCA:1,2011-07-06T06:00:00Z,30.3288,-87.8293,1.427,5.01,1111122 
DISL,ioos:station:DISL:BSCA:1,2011-07-06T06:30:00Z,30.3288,-87.8293,1.441,3.74,1111122 
DISL,ioos:station:DISL:BSCA:1,2011-07-06T07:00:00Z,30.3288,-87.8293,1.459,3.54,1111122 
DISL,ioos:station:DISL:BSCA:1,2011-07-06T07:30:00Z,30.3288,-87.8293,1.467,2.99,1111122 
DISL,ioos:station:DISL:BSCA:1,2011-07-06T08:00:00Z,30.3288,-87.8293,1.474,3.35,1111122 
DISL,ioos:station:DISL:BSCA:1,2011-07-06T08:30:00Z,30.3288,-87.8293,1.479,2.9,1111122 
DISL,ioos:station:DISL:BSCA:1,2011-07-06T09:00:00Z,30.3288,-87.8293,1.495,3.26,1111122 
DISL,ioos:station:DISL:BSCA:1,2011-07-06T09:30:00Z,30.3288,-87.8293,1.504,4.08,1111122 
DISL,ioos:station:DISL:BSCA:1,2011-07-06T10:00:00Z,30.3288,-87.8293,1.531,3.34,1111122 
DISL,ioos:station:DISL:BSCA:1,2011-07-06T10:30:00Z,30.3288,-87.8293,1.538,2.38,1111122 
DISL,ioos:station:DISL:BSCA:1,2011-07-06T11:00:00Z,30.3288,-87.8293,1.559,2.72,1111122 
DISL,ioos:station:DISL:BSCA:1,2011-07-06T11:30:00Z,30.3288,-87.8293,1.563,3.25,1111122 
DISL,ioos:station:DISL:BSCA:1,2011-07-06T12:00:00Z,30.3288,-87.8293,1.57,2.66,1111122 
DISL,ioos:station:DISL:BSCA:1,2011-07-06T12:30:00Z,30.3288,-87.8293,1.572,3.11,1111122 
DISL,ioos:station:DISL:BSCA:1,2011-07-06T13:00:00Z,30.3288,-87.8293,1.578,3.25,1111122 
DISL,ioos:station:DISL:BSCA:1,2011-07-06T13:30:00Z,30.3288,-87.8293,1.581,2.84,1111122 
DISL,ioos:station:DISL:BSCA:1,2011-07-06T14:00:00Z,30.3288,-87.8293,1.587,2.29,1111122 
DISL,ioos:station:DISL:BSCA:1,2011-07-06T14:30:00Z,30.3288,-87.8293,1.589,2.24,1111122 
DISL,ioos:station:DISL:BSCA:1,2011-07-06T15:00:00Z,30.3288,-87.8293,1.595,2.27,1111122 
DISL,ioos:station:DISL:BSCA:1,2011-07-06T15:30:00Z,30.3288,-87.8293,1.593,2.61,1111122 